[[{"header":{"parameterUnit":"m.s-1","parameterCategory":1,"la1":30.2992,"la2":30.254,"lo1":-89.0895,"lo2":-89.0443,"dy":0.0025,"dx":0.0025,"nx":19,"ny":19,"refTime":"2026-03-13T03:00:00:Z","depth":0,"parameterNumber":2,"parameterNumberName":"U-component_of_WINDS"},"data":[0,0,0,-1.6277,-1.6282,-1.6516,-1.6517,-1.6791,-1.6793,0,0,0,0,0,0,0,0,0,0,0,-1.6191,-1.6192,-1.6277,-1.6282,-1.6515,-1.6517,-1.6791,-1.6793,0,0,0,0,0,0,0,0,0,0,0,-1.6191,-1.6192,-1.6194,-1.6283,-1.6515,-1.6517,-1.679,-1.6623,0,0,0,0,0,0,0,0,0,0,-1.64,-1.6304,-1.6192,-1.6194,-1.6284,-1.6515,-1.6517,-1.6615,-1.6633,-1.6674,0,-1.6704,0,-1.6753,-1.681,-1.6811,0,0,0,-1.6295,-1.6289,-1.6367,-1.6194,-1.6286,-1.6515,-1.6414,-1.6626,-1.6646,-1.6698,-1.6709,-1.6719,-1.6757,-1.6811,-1.6813,-1.7003,-1.7003,0,0,-1.6282,-1.6224,-1.6353,-1.6379,-1.634,-1.6406,-1.6421,-1.6638,-1.6647,-1.671,-1.6726,-1.6762,-1.6813,-1.6815,-1.7003,-1.7003,0,0,0,-1.6236,-1.6215,-1.6288,-1.6367,-1.6411,-1.6413,-1.643,-1.6637,-1.6666,-1.673,-1.6765,-1.6815,-1.6818,-1.7002,-1.7003,-1.696,0,0,0,-1.6229,-1.6188,-1.6282,-1.6249,-1.6407,-1.6527,-1.6423,-1.6651,-1.6677,-1.6764,-1.6815,-1.682,-1.7002,-1.7002,-1.6961,-1.6949,0,0,0,-1.6182,-1.6183,-1.6211,-1.6245,-1.6344,-1.6525,-1.6566,-1.6658,-1.6698,-1.6811,-1.6821,-1.7002,-1.7002,-1.6961,-1.695,-1.6982,0,0,0,-1.6115,-1.617,-1.6209,-1.6285,-1.6341,-1.6496,-1.6565,-1.6684,-1.6775,-1.6816,-1.7002,-1.7003,-1.6961,-1.6951,-1.6982,-1.6998,-1.6999,0,0,-1.6152,-1.6172,-1.6222,-1.6264,-1.6396,-1.6465,-1.6593,-1.6732,-1.6796,-1.6931,-1.6936,-1.696,-1.695,-1.6982,-1.7028,-1.7028,0,0,0,-1.6214,-1.6248,-1.6297,-1.638,-1.6488,-1.6579,-1.6705,-1.6757,-1.6874,-1.6853,-1.6983,-1.6979,-1.7,-1.701,-1.7011,-1.7033,-1.7005,-1.7005,-1.7005,-1.6183,-1.6262,-1.635,-1.6457,-1.6538,-1.6668,-1.6742,-1.6835,-1.6891,-1.6921,-1.696,-1.6978,-1.6988,-1.6989,-1.7011,-1.6976,-1.6976,-1.6976,-1.6976,-1.6244,-1.6306,-1.6381,-1.6492,-1.6576,-1.6672,-1.6801,-1.6838,-1.694,-1.6954,-1.6977,-1.6984,-1.6986,-1.701,-1.6973,-1.6974,-1.6974,-1.6974,-1.6975,-1.6232,-1.6275,-1.6338,-1.6469,-1.6562,-1.6671,-1.6766,-1.684,-1.691,-1.6933,-1.6984,-1.6985,-1.6994,-1.6952,-1.6952,-1.6952,-1.6952,-1.6952,-1.6953,-1.6193,-1.6265,-1.6335,-1.6455,-1.652,-1.6615,-1.6749,-1.6816,-1.6909,-1.6955,-1.6956,-1.7009,-1.6972,-1.696,-1.6954,-1.6954,-1.6953,-1.6953,-1.6953,-1.6224,-1.6229,-1.6337,-1.6402,-1.6551,-1.6639,-1.6733,-1.6863,-1.6929,-1.6974,-1.7025,-1.6985,-1.7011,-1.7011,-1.7002,-1.7007,-1.7007,-1.7007,-1.7007,-1.6212,-1.6233,-1.6361,-1.646,-1.6567,-1.6663,-1.6785,-1.6891,-1.7001,-1.7047,-1.7058,-1.7053,-1.705,-1.7078,-1.7077,-1.707,-1.7091,-1.7092,-1.7092,-1.6236,-1.6271,-1.6358,-1.6465,-1.6588,-1.6692,-1.6809,-1.6922,-1.7049,-1.7097,-1.7086,-1.7082,-1.7075,-1.7068,-1.7112,-1.7109,-1.7097,0,0]},{"header":{"parameterUnit":"m.s-1","parameterCategory":1,"la1":30.2992,"la2":30.254,"lo1":-89.0895,"lo2":-89.0443,"dy":0.0025,"dx":0.0025,"nx":19,"ny":19,"refTime":"2026-03-13T03:00:00:Z","depth":0,"parameterNumber":3,"parameterNumberName":"V-component_of_WINDS"},"data":[0,0,0,3.9607,3.961,3.9772,3.9773,3.9956,3.9958,0,0,0,0,0,0,0,0,0,0,0,3.955,3.9551,3.9607,3.9611,3.9772,3.9773,3.9956,3.9958,0,0,0,0,0,0,0,0,0,0,0,3.9549,3.9551,3.9552,3.9611,3.9772,3.9773,3.9956,3.9841,0,0,0,0,0,0,0,0,0,0,3.9687,3.9627,3.955,3.9552,3.9612,3.9772,3.9773,3.9836,3.9848,3.9875,0,3.99,0,3.9932,3.9969,3.9969,0,0,0,3.9616,3.9616,3.9669,3.9552,3.9614,3.9771,3.9701,3.9843,3.9857,3.9891,3.9903,3.991,3.9935,3.997,3.9971,4.0115,4.0115,0,0,3.9608,3.9573,3.9659,3.9677,3.9656,3.9696,3.9706,3.9851,3.986,3.9903,3.9915,3.9938,3.9971,3.9972,4.0115,4.0115,0,0,0,3.9578,3.9566,3.9616,3.9669,3.9701,3.97,3.9712,3.9854,3.9873,3.9917,3.994,3.9972,3.9974,4.0114,4.0115,4.0101,0,0,0,3.9573,3.9549,3.9612,3.9592,3.9698,3.978,3.971,3.9863,3.9881,3.9939,3.9972,3.9976,4.0114,4.0114,4.0101,4.01,0,0,0,3.9542,3.9546,3.9566,3.9589,3.9658,3.9779,3.9807,3.9868,3.9895,3.997,3.9976,4.0114,4.0114,4.0101,4.0099,4.0127,0,0,0,3.9498,3.9551,3.9566,3.9632,3.9657,3.9771,3.9806,3.9892,3.9955,3.9973,4.0114,4.0115,4.01,4.0099,4.0126,4.0143,4.0148,0,0,3.9545,3.9555,3.9597,3.9615,3.9718,3.9749,3.9849,3.9938,3.9974,4.0065,4.0069,4.0101,4.0099,4.0127,4.0187,4.019,0,0,0,3.96,3.9629,3.9664,3.9725,3.9796,3.9856,3.9934,3.9967,4.0046,4.0015,4.0121,4.012,4.0138,4.0147,4.015,4.0166,4.0118,4.0118,4.0118,3.9613,3.9661,3.9733,3.9799,3.9857,3.9938,3.9987,4.0044,4.0073,4.0097,4.0123,4.0155,4.0165,4.0167,4.0183,4.0138,4.0138,4.0138,4.0138,3.9683,3.9731,3.9771,3.9856,3.9904,3.9974,4.0052,4.007,4.0139,4.0139,4.0156,4.015,4.0169,4.0186,4.0137,4.0137,4.0137,4.0137,4.0137,3.9695,3.9727,3.9769,3.9861,3.9925,3.999,4.0055,4.0097,4.0135,4.0153,4.0184,4.0184,4.0188,4.0165,4.0166,4.0166,4.0166,4.0166,4.0166,3.9691,3.9739,3.9791,3.9872,3.9916,3.9978,4.0059,4.0102,4.0159,4.0184,4.0184,4.0209,4.0164,4.015,4.0168,4.0167,4.0167,4.0167,4.0167,3.9741,3.9737,3.9818,3.9862,3.9959,4.0019,4.0073,4.0156,4.0197,4.0227,4.0249,4.021,4.0222,4.022,4.0209,4.0241,4.0241,4.0241,4.0241,3.9751,3.9762,3.9854,3.9921,3.9992,4.0048,4.0133,4.0196,4.0259,4.0287,4.0288,4.0278,4.0274,4.0289,4.0285,4.0275,4.0323,4.0323,4.0323,3.9783,3.9804,3.987,3.9936,4.0015,4.0081,4.0162,4.0234,4.0304,4.0327,4.0309,4.0305,4.0289,4.0282,4.0302,4.0296,4.0279,0,0]}]]